User: anonymous   Login
Location: Caltech
(34.1382°N, 118.1253°W)
Time: 01:39:31
(UTC-07:00)
Language:

Cosmos 1025 Rocket - Orbit

View from above orbital plane
View from above orbital plane
View from above satellite
View from above satellite

Ground track
Ground track

The orbit data is extracted from the following two-line orbital elements,

1 10974U 78067B   15208.22050247  .00000138  00000-0  12578-4 0  9996
2 10974 082.4831 103.5170 0018999 110.9586 249.3667 14.87015886  4876
Epoch (UTC): 27 July 2015 05:17:31
Eccentricity: 0.0018999
inclination: 82.4831°
perigee height: 594 km
apogee height: 620 km
right ascension of ascending node: 103.5170°
argument of perigee: 110.9586°
revolutions per day: 14.87015886
mean anomaly at epoch: 249.3667°
orbit number at epoch: 487

The dashed part of the orbit path shows where the satellite is in the earth's shadow,  

DLR